DW8847 Weather Reports


time (UTC)temp
C
wind
direction
speed
KPH
gust
KPH
rain 1hr
cm
rain 24hr
cm
rain mn
cm
humidity
%
barometer
mb
20260507224025 12 36 0.0 4.8 0.00 0.89 0.00 85 1015.4
20260507223524 12 36 1.6 4.8 0.00 0.89 0.00 85 1015.4
20260507223024 12 36 0.0 3.2 0.00 0.89 0.00 85 1015.4
20260507222523 12 36 0.0 3.2 0.00 0.89 0.00 86 1015.3
20260507222022 12 36 0.0 3.2 0.00 0.89 0.00 86 1015.3
20260507221530 12 36 0.0 3.2 0.00 0.89 0.00 86 1015.4
20260507221022 12 36 0.0 3.2 0.00 0.89 0.00 86 1015.4
20260507220520 12 36 0.0 3.2 0.00 0.89 0.00 86 1015.3
20260507220021 12 36 0.0 3.2 0.00 0.89 0.00 87 1015.4
20260507215520 12 36 0.0 3.2 0.00 0.89 0.89 87 1015.5
20260507215019 12 36 0.0 0.0 0.00 0.89 0.89 87 1015.4
20260507214521 11 36 0.0 0.0 0.00 0.89 0.89 87 1015.4
20260507214018 11 36 0.0 1.6 0.00 0.89 0.89 87 1015.3
20260507213518 11 36 0.0 3.2 0.00 0.89 0.89 87 1015.3
20260507213028 11 36 0.0 1.6 0.00 0.89 0.89 87 1015.1
20260507212516 11 36 0.0 1.6 0.00 0.89 0.89 87 1015.2
20260507212017 12 36 0.0 0.0 0.00 0.89 0.89 87 1015.2
20260507211515 12 36 0.0 0.0 0.00 0.89 0.89 87 1015.2
20260507211014 12 36 0.0 0.0 0.00 0.89 0.89 87 1015.1
20260507210513 12 36 0.0 0.0 0.00 0.89 0.89 87 1015.1
20260507210030 12 36 0.0 0.0 0.00 0.89 0.89 88 1015.1
20260507205514 12 36 0.0 0.0 0.00 0.89 0.89 88 1015.0
20260507205014 12 36 0.0 1.6 0.00 0.89 0.89 89 1014.9
20260507204511 12 36 0.0 1.6 0.00 0.89 0.89 88 1014.9
20260507204015 12 36 0.0 0.0 0.00 0.89 0.89 88 1014.9
20260507203511 12 36 0.0 0.0 0.00 0.89 0.89 88 1014.8
20260507203017 12 36 0.0 0.0 0.00 0.89 0.89 88 1014.7
20260507202510 12 36 0.0 0.0 0.00 0.89 0.89 88 1014.8
20260507202009 12 36 0.0 0.0 0.00 0.89 0.89 88 1014.8
20260507201514 12 36 0.0 0.0 0.00 0.89 0.89 88 1014.7
20260507201012 12 36 0.0 3.2 0.00 0.89 0.89 87 1014.7
20260507200507 12 36 0.0 3.2 0.00 0.89 0.89 87 1014.6
20260507200016 12 36 0.0 3.2 0.00 0.89 0.89 87 1014.5
20260507195505 12 36 0.0 0.0 0.00 0.89 0.89 87 1014.5
20260507195007 13 36 0.0 0.0 0.00 0.89 0.89 87 1014.4
20260507194504 13 36 0.0 0.0 0.00 0.89 0.89 86 1014.4
20260507194003 13 36 0.0 0.0 0.00 0.89 0.89 86 1014.4
20260507193505 13 36 0.0 0.0 0.00 0.89 0.89 86 1014.3
20260507193004 13 36 0.0 0.0 0.00 0.89 0.89 85 1014.3
20260507192600 13 36 0.0 0.0 0.00 0.89 0.89 85 1014.3
20260507192102 13 36 0.0 0.0 0.00 0.89 0.89 85 1014.3
20260507191601 13 36 0.0 0.0 0.00 0.89 0.89 84 1014.2
20260507191100 13 36 0.0 0.0 0.00 0.89 0.89 84 1014.1
20260507190557 13 36 0.0 0.0 0.00 0.89 0.89 83 1014.0
20260507190057 13 36 0.0 0.0 0.00 0.89 0.89 83 1014.0
20260507185555 13 36 0.0 0.0 0.00 0.89 0.89 83 1013.9
20260507185055 14 36 0.0 0.0 0.00 0.89 0.89 82 1013.7
20260507184554 14 36 0.0 0.0 0.00 0.89 0.89 82 1013.6
20260507184100 14 36 0.0 3.2 0.00 0.89 0.89 82 1013.6
20260507183554 14 36 0.0 3.2 0.00 0.89 0.89 82 1013.6
20260507183101 14 36 0.0 3.2 0.00 0.89 0.89 82 1013.5
20260507182553 14 36 0.0 3.2 0.00 0.89 0.89 82 1013.5
20260507182054 14 36 0.0 3.2 0.00 0.89 0.89 82 1013.4
20260507181552 14 36 1.6 3.2 0.00 0.89 0.89 81 1013.4
20260507181051 15 36 1.6 3.2 0.00 0.89 0.89 81 1013.4
20260507180552 15 29 1.6 3.2 0.00 0.89 0.89 81 1013.3
20260507180055 15 33 0.0 4.8 0.00 0.89 0.89 81 1013.3
20260507175559 15 34 1.6 8.0 0.00 0.89 0.89 81 1013.3
20260507175052 15 30 3.2 9.7 0.00 0.89 0.89 80 1013.1
20260507174552 15 11 4.8 9.7 0.00 0.89 0.89 81 1013.1
20260507174051 15 24 4.8 9.7 0.00 0.89 0.89 81 1013.0
20260507173550 15 34 4.8 9.7 0.00 0.89 0.89 82 1013.0
20260507173121 15 22 4.8 9.7 0.00 0.89 0.89 82 1013.1
20260507172552 15 355 4.8 9.7 0.00 0.89 0.89 82 1013.0
20260507172050 16 19 3.2 8.0 0.00 0.89 0.89 81 1013.1
20260507171550 16 22 4.8 8.0 0.00 0.89 0.89 81 1013.0
20260507171049 16 22 4.8 9.7 0.00 0.89 0.89 80 1013.0
20260507170550 17 5 3.2 6.4 0.00 0.89 0.89 81 1013.0
20260507170050 17 40 1.6 8.0 0.00 0.89 0.89 80 1013.0
20260507165547 17 23 3.2 8.0 0.00 0.91 0.89 79 1013.0
20260507165049 17 40 0.0 4.8 0.00 0.91 0.89 75 1012.9
20260507164554 17 55 1.6 6.4 0.00 0.91 0.89 74 1012.9
20260507164047 17 80 0.0 8.0 0.00 0.91 0.89 75 1012.8
20260507163546 17 55 3.2 8.0 0.00 0.91 0.89 75 1012.8
20260507163046 17 69 1.6 6.4 0.00 0.91 0.89 76 1012.8
20260507162546 17 65 1.6 8.0 0.00 0.91 0.89 77 1012.9
20260507162045 17 85 3.2 8.0 0.00 0.91 0.89 77 1012.7
20260507161552 17 74 1.6 4.8 0.03 0.91 0.89 77 1012.7
20260507161043 17 75 1.6 6.4 0.03 0.91 0.89 78 1012.6
20260507160544 17 56 1.6 6.4 0.05 0.91 0.89 80 1012.6
20260507160100 16 64 0.0 4.8 0.30 0.91 0.89 82 1012.6
20260507155542 16 59 1.6 6.4 0.76 1.40 0.89 82 1012.5
20260507155045 16 57 0.0 6.4 0.86 1.40 0.89 80 1012.6
20260507154542 16 69 0.0 8.0 0.89 1.40 0.89 80 1012.5
20260507154042 16 80 1.6 14.5 0.89 1.40 0.89 81 1012.4
20260507153542 15 54 4.8 14.5 0.89 1.40 0.89 81 1012.4
20260507153043 15 73 1.6 6.4 0.89 1.40 0.89 85 1012.4
20260507152541 14 73 1.6 9.7 0.89 1.40 0.89 83 1012.4
20260507152041 14 57 0.0 12.9 0.89 1.40 0.89 84 1012.4
20260507151542 14 38 6.4 12.9 0.86 1.37 0.86 84 1012.3
20260507151040 13 37 6.4 12.9 0.86 1.37 0.86 84 1012.3
20260507150545 14 13 3.2 16.1 0.79 1.32 0.79 81 1012.4
20260507150040 15 24 11.3 16.1 0.48 0.99 0.48 79 1012.3
20260507145539 17 360 1.6 8.0 0.08 0.66 0.08 72 1012.4
20260507145041 18 5 0.0 6.4 0.00 0.58 0.00 73 1012.1
20260507144548 18 13 0.0 8.0 0.00 0.58 0.00 71 1011.5
20260507144041 19 137 0.0 8.0 0.00 0.58 0.00 69 1011.1
20260507143538 19 196 1.6 9.7 0.00 0.58 0.00 68 1010.9
20260507143039 19 355 1.6 9.7 0.00 0.58 0.00 67 1010.8
20260507142538 19 319 0.0 6.4 0.00 0.58 0.00 65 1010.8
20260507142044 19 355 1.6 11.3 0.00 0.58 0.00 63 1011.0
20260507141537 19 217 3.2 16.1 0.00 0.58 0.00 64 1011.1
20260507141038 20 216 3.2 16.1 0.00 0.58 0.00 66 1011.1
20260507140538 20 183 4.8 16.1 0.00 0.58 0.00 65 1011.1
20260507140040 20 236 4.8 12.9 0.00 0.58 0.00 63 1011.1
20260507135538 20 188 3.2 16.1 0.00 0.64 0.00 60 1011.1
20260507135037 21 262 4.8 16.1 0.00 0.64 0.00 59 1011.2
20260507134537 21 290 3.2 14.5 0.00 0.64 0.00 61 1011.2
20260507134037 21 170 4.8 22.5 0.00 0.64 0.00 60 1011.1
20260507133537 20 232 8.0 22.5 0.00 0.64 0.00 61 1011.1
20260507133038 21 153 3.2 12.9 0.00 0.64 0.00 60 1011.0
20260507132536 21 194 8.0 14.5 0.00 0.64 0.00 60 1011.1
20260507132036 21 218 3.2 12.9 0.00 0.64 0.00 60 1011.2
20260507131537 21 230 3.2 11.3 0.00 0.64 0.00 62 1011.3
20260507131036 20 219 4.8 14.5 0.00 0.64 0.00 61 1011.4
20260507130535 21 213 4.8 14.5 0.00 0.64 0.00 64 1011.3
20260507130040 21 220 3.2 12.9 0.00 0.64 0.00 58 1011.3
20260507125535 21 233 4.8 12.9 0.00 0.89 0.00 58 1011.3
20260507125036 21 205 3.2 12.9 0.00 0.89 0.00 56 1011.2
20260507124537 21 188 8.0 11.3 0.00 0.89 0.00 53 1011.3
20260507124035 21 115 1.6 9.7 0.00 0.89 0.00 54 1011.2
20260507123535 20 162 3.2 9.7 0.00 0.89 0.00 58 1011.3
20260507123041 20 188 1.6 8.0 0.00 0.89 0.00 56 1011.4
20260507122534 20 205 1.6 12.9 0.00 0.89 0.00 57 1011.4
20260507122037 20 237 1.6 12.9 0.00 0.89 0.00 55 1011.4
20260507121534 21 169 1.6 4.8 0.00 0.89 0.00 58 1011.5
20260507121032 20 222 1.6 4.8 0.00 0.89 0.00 56 1011.5
20260507120535 20 182 0.0 4.8 0.00 0.89 0.00 56 1011.6
20260507120033 21 160 0.0 9.7 0.00 0.89 0.00 57 1011.6
20260507115533 21 251 1.6 9.7 0.00 0.91 0.00 58 1011.5
20260507115033 20 165 3.2 11.3 0.00 0.91 0.00 62 1011.7
20260507114532 21 195 4.8 11.3 0.00 0.91 0.00 59 1011.6
20260507114034 21 180 4.8 11.3 0.00 0.91 0.00 58 1011.7
20260507113532 22 59 1.6 8.0 0.00 0.91 0.00 60 1011.5
20260507113031 21 14 0.0 8.0 0.00 0.91 0.00 55 1011.6
20260507112533 21 99 0.0 11.3 0.00 0.91 0.00 56 1011.8
20260507112030 20 238 1.6 11.3 0.00 0.91 0.00 61 1011.8
20260507111536 21 198 1.6 6.4 0.00 0.91 0.00 60 1011.8
20260507111029 20 59 1.6 6.4 0.00 0.91 0.00 60 1011.9
20260507110529 21 155 1.6 8.0 0.00 0.91 0.00 58 1012.0
20260507110032 21 107 1.6 8.0 0.00 0.91 0.00 60 1012.0
20260507105530 21 134 0.0 3.2 0.00 0.99 0.00 59 1011.9
20260507105028 21 149 0.0 6.4 0.00 0.99 0.00 57 1012.0
20260507104528 21 235 1.6 8.0 0.00 0.99 0.00 57 1012.1
20260507104028 21 191 1.6 8.0 0.00 0.99 0.00 56 1012.1
20260507103526 21 146 0.0 3.2 0.00 0.99 0.00 61 1012.2
20260507103027 20 92 0.0 8.0 0.00 0.99 0.00 64 1012.3
20260507102526 20 281 0.0 8.0 0.00 0.99 0.00 67 1012.4
20260507102026 20 205 1.6 8.0 0.00 0.99 0.00 70 1012.3
20260507101525 21 73 1.6 4.8 0.00 0.99 0.00 63 1012.3
20260507101027 21 182 0.0 9.7 0.00 0.99 0.00 63 1012.3
20260507100524 20 76 3.2 9.7 0.00 0.99 0.00 68 1012.4
20260507100024 20 180 0.0 9.7 0.00 0.99 0.00 69 1012.4
20260507095524 21 194 1.6 9.7 0.00 1.09 0.00 63 1012.3
20260507095024 21 190 0.0 8.0 0.00 1.09 0.00 66 1012.3
20260507094524 20 167 1.6 8.0 0.00 1.09 0.00 69 1012.3
20260507094021 20 118 0.0 6.4 0.00 1.09 0.00 67 1012.2
20260507093521 20 118 1.6 6.4 0.00 1.09 0.00 69 1012.3
20260507093022 19 122 0.0 3.2 0.00 1.09 0.00 69 1012.2
20260507092521 19 122 0.0 4.8 0.00 1.09 0.00 68 1012.2
20260507092021 19 132 0.0 4.8 0.00 1.09 0.00 70 1012.2
20260507091521 19 67 1.6 6.4 0.00 1.09 0.00 73 1012.2
20260507091021 20 92 0.0 8.0 0.00 1.09 0.00 69 1012.2
20260507090522 20 78 0.0 6.4 0.00 1.09 0.00 69 1012.3
20260507090019 20 46 0.0 6.4 0.00 1.09 0.00 68 1012.3
20260507085519 19 53 1.6 4.8 0.00 1.09 0.00 67 1012.2
20260507085018 20 35 0.0 6.4 0.00 1.09 0.00 69 1012.3
20260507084518 20 83 1.6 8.0 0.00 1.09 0.00 69 1012.2
20260507084023 19 62 3.2 8.0 0.00 1.09 0.00 71 1012.3
20260507083515 18 30 0.0 6.4 0.00 1.09 0.00 71 1012.2
20260507083020 18 63 0.0 6.4 0.00 1.09 0.00 70 1012.2
20260507082514 18 88 1.6 8.0 0.00 1.09 0.00 74 1012.1
20260507082014 18 84 0.0 3.2 0.00 1.09 0.00 75 1012.1
20260507081522 18 84 0.0 3.2 0.00 1.09 0.00 73 1012.0
20260507081013 18 84 0.0 6.4 0.00 1.09 0.00 72 1012.0
20260507080518 19 76 1.6 6.4 0.00 1.09 0.00 73 1012.1
20260507080016 19 67 1.6 4.8 0.00 1.09 0.00 73 1012.1
20260507075510 19 60 0.0 3.2 0.00 1.09 0.00 74 1012.0
20260507075009 18 59 0.0 3.2 0.00 1.09 0.00 74 1012.0
20260507074508 18 59 0.0 4.8 0.00 1.09 0.00 74 1012.0
20260507074008 18 57 1.6 6.4 0.00 1.09 0.00 75 1012.1
20260507073505 18 53 1.6 8.0 0.00 1.09 0.00 77 1012.0
20260507073005 18 57 0.0 8.0 0.00 1.09 0.00 75 1012.1
20260507072506 18 102 1.6 6.4 0.00 1.09 0.00 77 1012.1
20260507072004 18 38 1.6 6.4 0.00 1.09 0.00 76 1012.0
20260507071501 17 45 0.0 8.0 0.00 1.09 0.00 79 1012.0
20260507071101 17 57 1.6 8.0 0.00 1.09 0.00 79 1012.0
20260507070600 17 67 3.2 8.0 0.00 1.09 0.00 79 1011.9
20260507070059 17 71 3.2 6.4 0.00 1.09 0.00 81 1011.7
20260507065558 17 65 3.2 6.4 0.00 1.12 0.00 82 1011.8
20260507065057 17 57 1.6 6.4 0.00 1.12 0.00 83 1011.8
20260507064613 17 53 1.6 6.4 0.00 1.12 0.00 83 1011.8
20260507064056 16 19 3.2 8.0 0.00 1.12 0.00 84 1011.8
20260507063555 16 48 3.2 8.0 0.00 1.12 0.00 84 1011.8
20260507063056 16 59 1.6 6.4 0.00 1.12 0.00 86 1011.7
20260507062552 16 38 1.6 8.0 0.00 1.12 0.00 86 1011.7
20260507062051 16 40 3.2 8.0 0.00 1.12 0.00 87 1011.7
20260507061550 15 22 4.8 8.0 0.00 1.12 0.00 88 1011.6
20260507061048 15 37 3.2 9.7 0.00 1.12 0.00 90 1011.5
20260507060548 15 26 3.2 9.7 0.00 1.12 0.00 90 1011.5
20260507060052 15 33 4.8 8.0 0.00 1.12 0.00 90 1011.5
20260507055547 15 30 1.6 8.0 0.00 1.14 0.00 90 1011.5
20260507055046 14 36 1.6 8.0 0.00 1.14 0.00 90 1011.5
20260507054548 15 34 3.2 8.0 0.00 1.14 0.00 89 1011.4
20260507054045 15 59 3.2 8.0 0.00 1.14 0.00 89 1011.3
20260507053544 15 44 3.2 6.4 0.00 1.14 0.00 90 1011.2
20260507053045 15 33 1.6 4.8 0.00 1.14 0.00 90 1011.2
20260507052545 15 40 3.2 8.0 0.00 1.14 0.00 90 1011.1
20260507052041 14 53 1.6 8.0 0.00 1.14 0.00 91 1011.1
20260507051540 14 28 3.2 6.4 0.00 1.14 0.00 91 1011.0
20260507051038 14 45 1.6 4.8 0.00 1.14 0.00 91 1010.9
20260507050538 14 46 1.6 4.8 0.00 1.14 0.00 91 1010.9
20260507050040 14 35 0.0 4.8 0.00 1.14 0.00 92 1010.8
20260507045540 14 35 0.0 4.8 0.00 1.14 0.00 92 1010.8
20260507045036 14 35 0.0 3.2 0.00 1.14 0.00 92 1010.7
20260507044535 14 35 0.0 3.2 0.00 1.14 0.00 92 1010.6
20260507044036 14 35 0.0 3.2 0.00 1.14 0.00 92 1010.5
20260507043538 14 35 1.6 3.2 0.00 1.14 0.00 92 1010.5
20260507043035 14 35 0.0 3.2 0.00 1.14 0.00 92 1010.5
20260507042534 14 35 0.0 4.8 0.00 1.14 0.00 92 1010.6
20260507042034 14 35 1.6 4.8 0.00 1.14 0.00 92 1010.5
20260507041547 13 44 1.6 4.8 0.00 1.14 0.00 92 1010.4
20260507041035 13 62 0.0 3.2 0.00 1.14 0.00 92 1010.4
20260507040534 13 62 0.0 3.2 0.00 1.14 0.00 92 1010.4
20260507040032 13 62 1.6 3.2 0.00 1.14 0.00 92 1010.3
20260507035531 13 62 0.0 3.2 0.00 1.14 0.00 92 1010.3
20260507035031 13 62 0.0 3.2 0.00 1.14 0.00 92 1010.3
20260507034531 13 62 0.0 0.0 0.00 1.14 0.00 92 1010.4
20260507034031 13 62 0.0 0.0 0.00 1.14 0.00 92 1010.4
20260507033533 14 62 0.0 0.0 0.00 1.14 0.00 92 1010.4
20260507033034 14 62 0.0 1.6 0.00 1.14 0.00 92 1010.4
20260507032531 14 62 0.0 3.2 0.00 1.14 0.00 92 1010.4
20260507032030 14 62 0.0 3.2 0.00 1.14 0.00 92 1010.3
20260507031530 14 62 0.0 3.2 0.00 1.14 0.00 92 1010.3
20260507031030 14 62 0.0 3.2 0.00 1.14 0.00 92 1010.4
20260507030530 14 62 0.0 3.2 0.00 1.14 0.00 92 1010.4
20260507030030 14 62 0.0 3.2 0.00 1.14 0.00 92 1010.4
20260507025529 14 62 0.0 3.2 0.00 1.14 0.00 92 1010.4
20260507025029 14 62 0.0 3.2 0.00 1.14 0.00 92 1010.4
20260507024529 14 62 0.0 3.2 0.00 1.14 0.00 92 1010.4
20260507024030 14 62 0.0 0.0 0.00 1.14 0.00 92 1010.4
20260507023529 14 62 0.0 0.0 0.00 1.14 0.00 92 1010.3
20260507023030 14 62 0.0 1.6 0.00 1.14 0.00 92 1010.3
20260507022528 14 62 0.0 1.6 0.00 1.14 0.00 92 1010.3
20260507022029 14 62 0.0 0.0 0.00 1.14 0.00 92 1010.3
20260507021528 14 62 0.0 3.2 0.00 1.14 0.00 92 1010.3
20260507021031 14 62 0.0 3.2 0.00 1.14 0.00 92 1010.3
20260507020528 14 62 0.0 3.2 0.00 1.14 0.00 92 1010.2
20260507020029 14 62 0.0 3.2 0.00 1.14 0.00 92 1010.3
20260507015527 13 62 0.0 3.2 0.00 1.14 0.00 92 1010.2
20260507015031 13 62 0.0 1.6 0.00 1.14 0.00 91 1010.2
20260507014546 14 62 0.0 0.0 0.00 1.14 0.00 91 1010.3
20260507014031 14 62 0.0 1.6 0.00 1.14 0.00 91 1010.3
20260507013527 14 62 0.0 1.6 0.00 1.14 0.00 92 1010.2
20260507013040 14 62 0.0 0.0 0.00 1.14 0.00 92 1010.2
20260507012528 14 62 0.0 3.2 0.00 1.14 0.00 92 1010.2
20260507012030 14 62 0.0 3.2 0.00 1.14 0.00 92 1010.3
20260507011535 14 62 0.0 3.2 0.00 1.14 0.00 92 1010.2
20260507011025 14 62 0.0 3.2 0.00 1.14 0.00 92 1010.3
20260507010525 14 62 0.0 0.0 0.00 1.14 0.00 92 1010.3
20260507010029 14 62 0.0 0.0 0.00 1.14 0.00 92 1010.4
20260507005524 14 62 0.0 0.0 0.00 1.14 0.00 92 1010.3
20260507005024 14 62 0.0 0.0 0.00 1.14 0.00 92 1010.4
20260507004524 14 62 0.0 0.0 0.00 1.14 0.00 92 1010.3
20260507004025 14 62 0.0 0.0 0.00 1.14 0.00 92 1010.3
20260507003524 14 62 0.0 0.0 0.00 1.14 0.00 92 1010.3
20260507003024 14 62 0.0 0.0 0.00 1.14 0.00 92 1010.4
20260507002523 14 62 0.0 0.0 0.00 1.14 0.00 92 1010.4
20260507002023 14 62 0.0 0.0 0.00 1.14 0.00 92 1010.3
20260507001521 14 62 0.0 0.0 0.00 1.14 0.00 92 1010.3
20260507001022 13 62 0.0 0.0 0.00 1.14 0.00 91 1010.4
20260507000526 13 62 0.0 0.0 0.00 1.14 0.00 91 1010.4
20260507000028 13 62 0.0 0.0 0.00 1.14 0.00 91 1010.4
20260506235522 13 62 0.0 0.0 0.00 1.14 0.00 91 1010.5
20260506235021 13 62 0.0 3.2 0.00 1.14 0.00 91 1010.4
20260506234521 13 62 0.0 3.2 0.00 1.14 0.00 91 1010.4
20260506234022 13 62 0.0 0.0 0.00 1.14 0.00 91 1010.4
20260506233520 13 62 0.0 3.2 0.00 1.14 0.00 90 1010.4
20260506233023 13 62 0.0 3.2 0.00 1.14 0.00 90 1010.5
20260506232522 13 62 0.0 3.2 0.00 1.14 0.00 90 1010.5
20260506232019 13 62 0.0 0.0 0.00 1.14 0.00 90 1010.5
20260506231518 13 62 0.0 1.6 0.00 1.14 0.00 90 1010.6
20260506231018 13 62 0.0 3.2 0.00 1.14 0.00 90 1010.5
20260506230518 13 62 0.0 3.2 0.00 1.14 0.00 90 1010.4
20260506230017 13 62 0.0 4.8 0.00 1.14 0.00 90 1010.5
20260506225521 13 62 0.0 4.8 0.00 1.14 0.00 90 1010.6
20260506225017 13 62 0.0 4.8 0.00 1.14 0.00 90 1010.6
20260506224519 13 62 1.6 4.8 0.00 1.14 0.00 90 1010.6